• In Czech Republic
  • List of Countries
  • For 7 days
  • Water Temperature
  • Satellite Maps
  • Weather Map
  • Weather Widgets
  • user-avatar
    Login

    Hourly Weather Quebec

    Today, 23 October, Monday

    Time Temperature Precipitation Wind Pressure Humidity
    00:00 +1°C° 0 mm 5 mps 699 mmHg 91%
    01:00 +1°C° 0 mm 5 mps 699 mmHg 92%
    02:00 +1°C° 0 mm 5 mps 699 mmHg 92%
    03:00 +1°C° 0 mm 5 mps 698 mmHg 93%
    04:00 +1°C° 0 mm 5 mps 698 mmHg 94%
    05:00 +2°C° 0 mm 5 mps 698 mmHg 94%
    06:00 +2°C° 0 mm 5 mps 698 mmHg 95%
    07:00 +2°C° 0 mm 5 mps 698 mmHg 95%
    08:00 +3°C° 0.2 mm 5 mps 697 mmHg 93%
    09:00 +3°C° 0.2 mm 5 mps 697 mmHg 92%
    10:00 +5°C° 0.2 mm 5 mps 697 mmHg 91%
    11:00 +6°C° 0.1 mm 5 mps 697 mmHg 89%
    12:00 +8°C° 0.1 mm 5 mps 697 mmHg 87%
    13:00 +9°C° 0.1 mm 5 mps 697 mmHg 85%
    14:00 +10°C° 0.1 mm 4 mps 697 mmHg 86%
    15:00 +10°C° 0.1 mm 4 mps 696 mmHg 88%
    16:00 +10°C° 0.1 mm 4 mps 696 mmHg 89%
    17:00 +8°C° 0 mm 4 mps 696 mmHg 90%
    18:00 +8°C° 0 mm 4 mps 696 mmHg 90%
    19:00 +8°C° 0 mm 4 mps 697 mmHg 90%
    20:00 +8°C° 0 mm 4 mps 696 mmHg 91%
    21:00 +7°C° 0 mm 4 mps 696 mmHg 91%
    22:00 +7°C° 0 mm 4 mps 696 mmHg 92%
    23:00 +7°C° 0 mm 4 mps 696 mmHg 93%

    Tomorrow, 24 October, Tuesday

    Time Temperature Precipitation Wind Pressure Humidity
    00:00 +7°C° 0 mm 3 mps 696 mmHg 94%
    01:00 +7°C° 0 mm 3 mps 696 mmHg 94%
    02:00 +7°C° 0 mm 3 mps 696 mmHg 94%
    03:00 +7°C° 0 mm 3 mps 696 mmHg 94%
    04:00 +7°C° 0 mm 3 mps 695 mmHg 94%
    05:00 +6°C° 0 mm 4 mps 695 mmHg 94%
    06:00 +6°C° 0 mm 4 mps 695 mmHg 94%
    07:00 +6°C° 0 mm 5 mps 694 mmHg 94%
    08:00 +7°C° 0 mm 5 mps 694 mmHg 91%
    09:00 +8°C° 0 mm 6 mps 694 mmHg 89%
    10:00 +10°C° 0 mm 6 mps 694 mmHg 86%
    11:00 +10°C° 0 mm 7 mps 693 mmHg 85%
    12:00 +11°C° 0 mm 7 mps 693 mmHg 84%
    13:00 +11°C° 0 mm 7 mps 692 mmHg 83%
    14:00 +11°C° 0.1 mm 7 mps 692 mmHg 84%
    15:00 +11°C° 0.1 mm 7 mps 691 mmHg 85%
    16:00 +12°C° 0.1 mm 7 mps 691 mmHg 86%
    17:00 +12°C° 0.2 mm 7 mps 691 mmHg 87%
    18:00 +12°C° 0.2 mm 7 mps 690 mmHg 88%
    19:00 +12°C° 0.2 mm 7 mps 690 mmHg 88%
    20:00 +12°C° 0.4 mm 7 mps 690 mmHg 89%
    21:00 +12°C° 0.4 mm 7 mps 689 mmHg 89%
    22:00 +12°C° 0.4 mm 7 mps 689 mmHg 90%
    23:00 +12°C° 0.3 mm 7 mps 688 mmHg 88%

    Day after tomorrow, 25 October, Wednesday

    Time Temperature Precipitation Wind Pressure Humidity
    00:00 +11°C° 0.3 mm 7 mps 688 mmHg 87%
    01:00 +11°C° 0.3 mm 7 mps 687 mmHg 86%
    02:00 +11°C° 0.1 mm 6 mps 687 mmHg 86%
    03:00 +10°C° 0.1 mm 6 mps 687 mmHg 87%
    04:00 +9°C° 0.1 mm 5 mps 687 mmHg 87%
    05:00 +9°C° 0.1 mm 5 mps 687 mmHg 86%
    06:00 +9°C° 0.1 mm 5 mps 687 mmHg 85%
    07:00 +8°C° 0.1 mm 6 mps 687 mmHg 84%
    08:00 +9°C° 0.1 mm 6 mps 687 mmHg 78%
    09:00 +9°C° 0.1 mm 7 mps 687 mmHg 72%
    10:00 +9°C° 0.1 mm 8 mps 688 mmHg 65%
    11:00 +10°C° 0 mm 7 mps 687 mmHg 61%
    12:00 +10°C° 0 mm 7 mps 687 mmHg 57%
    13:00 +10°C° 0 mm 7 mps 687 mmHg 53%
    14:00 +9°C° 0 mm 6 mps 687 mmHg 57%
    15:00 +9°C° 0 mm 5 mps 687 mmHg 61%
    16:00 +9°C° 0 mm 3 mps 687 mmHg 65%
    17:00 +8°C° 0 mm 3 mps 687 mmHg 70%
    18:00 +7°C° 0 mm 3 mps 687 mmHg 74%
    19:00 +5°C° 0 mm 3 mps 688 mmHg 79%
    20:00 +5°C° 0 mm 3 mps 688 mmHg 81%
    21:00 +5°C° 0 mm 2 mps 688 mmHg 84%
    22:00 +5°C° 0 mm 2 mps 688 mmHg 86%
    23:00 +5°C° 0 mm 2 mps 688 mmHg 86%

    26 October, Thursday

    Time Temperature Precipitation Wind Pressure Humidity
    00:00 +4°C° 0 mm 3 mps 688 mmHg 86%
    01:00 +3°C° 0 mm 3 mps 688 mmHg 86%
    02:00 +3°C° 0 mm 3 mps 688 mmHg 87%
    03:00 +3°C° 0 mm 3 mps 688 mmHg 88%
    04:00 +2°C° 0 mm 3 mps 688 mmHg 89%
    05:00 +2°C° 0 mm 3 mps 688 mmHg 90%
    06:00 +2°C° 0 mm 3 mps 689 mmHg 90%
    07:00 +1°C° 0 mm 3 mps 689 mmHg 91%
    08:00 +1°C° 0 mm 4 mps 689 mmHg 86%
    09:00 +1°C° 0 mm 4 mps 689 mmHg 82%
    10:00 +2°C° 0 mm 5 mps 690 mmHg 77%
    11:00 +2°C° 0 mm 5 mps 690 mmHg 76%
    12:00 +2°C° 0 mm 5 mps 690 mmHg 74%
    13:00 +2°C° 0 mm 5 mps 690 mmHg 73%
    14:00 +1°C° 0.1 mm 5 mps 691 mmHg 76%
    15:00 +1°C° 0.1 mm 5 mps 691 mmHg 79%
    16:00 +1°C° 0.1 mm 5 mps 692 mmHg 82%
    17:00 0°C° 0.1 mm 5 mps 693 mmHg 82%
    18:00 -1°C° 0.1 mm 4 mps 694 mmHg 82%
    19:00 -1°C° 0.1 mm 4 mps 694 mmHg 82%
    20:00 -2°C° 0 mm 4 mps 695 mmHg 82%
    21:00 -1°C° 0 mm 3 mps 696 mmHg 82%
    22:00 -2°C° 0 mm 3 mps 696 mmHg 82%
    23:00 -2°C° 0 mm 2 mps 697 mmHg 83%

    27 October, Friday

    Time Temperature Precipitation Wind Pressure Humidity
    00:00 -1°C° 0 mm 1 mps 697 mmHg 84%
    01:00 -1°C° 0 mm 1 mps 697 mmHg 86%
    02:00 -1°C° 0 mm 1 mps 698 mmHg 85%
    03:00 -1°C° 0 mm 1 mps 698 mmHg 84%
    04:00 -1°C° 0 mm 1 mps 698 mmHg 83%
    05:00 -1°C° 0 mm 1 mps 698 mmHg 80%
    06:00 -3°C° 0 mm 2 mps 698 mmHg 78%
    07:00 -2°C° 0 mm 3 mps 699 mmHg 76%
    08:00 -1°C° 0 mm 3 mps 698 mmHg 74%
    09:00 -2°C° 0 mm 4 mps 698 mmHg 73%
    10:00 -1°C° 0 mm 4 mps 698 mmHg 71%
    11:00 0°C° 0 mm 5 mps 698 mmHg 67%
    12:00 +2°C° 0 mm 5 mps 697 mmHg 63%
    13:00 +3°C° 0 mm 5 mps 697 mmHg 60%
    14:00 +3°C° 0 mm 5 mps 696 mmHg 62%
    15:00 +2°C° 0 mm 5 mps 695 mmHg 64%
    16:00 +2°C° 0 mm 5 mps 695 mmHg 67%
    17:00 +2°C° 0.1 mm 6 mps 695 mmHg 69%
    18:00 +2°C° 0.1 mm 6 mps 694 mmHg 72%
    19:00 +1°C° 0.1 mm 6 mps 694 mmHg 75%
    20:00 +1°C° 0.4 mm 6 mps 694 mmHg 76%
    21:00 +1°C° 0.4 mm 6 mps 693 mmHg 77%
    22:00 +1°C° 0.4 mm 6 mps 693 mmHg 78%
    23:00 +1°C° 0.6 mm 6 mps 692 mmHg 80%

    28 October, Saturday

    Time Temperature Precipitation Wind Pressure Humidity
    00:00 +1°C° 0.6 mm 6 mps 692 mmHg 82%
    01:00 +1°C° 0.6 mm 6 mps 691 mmHg 83%
    02:00 +1°C° 0.3 mm 6 mps 691 mmHg 84%
    03:00 +2°C° 0.3 mm 6 mps 691 mmHg 85%
    04:00 +2°C° 0.3 mm 6 mps 690 mmHg 86%
    05:00 +2°C° 0.4 mm 6 mps 690 mmHg 87%
    06:00 +2°C° 0.4 mm 5 mps 690 mmHg 87%
    07:00 +1°C° 0.4 mm 5 mps 690 mmHg 87%
    08:00 +1°C° 0.1 mm 6 mps 690 mmHg 80%
    09:00 +2°C° 0.1 mm 6 mps 690 mmHg 73%
    10:00 +2°C° 0.1 mm 7 mps 690 mmHg 66%
    11:00 0°C° 0.1 mm 7 mps 690 mmHg 67%
    12:00 0°C° 0.1 mm 8 mps 689 mmHg 67%
    13:00 0°C° 0.1 mm 8 mps 689 mmHg 67%
    14:00 0°C° 0.1 mm 8 mps 689 mmHg 69%
    15:00 -1°C° 0.1 mm 8 mps 690 mmHg 71%
    16:00 -1°C° 0.1 mm 8 mps 690 mmHg 73%
    17:00 -2°C° 0.1 mm 8 mps 691 mmHg 74%
    18:00 -2°C° 0.1 mm 8 mps 691 mmHg 75%
    19:00 -4°C° 0.1 mm 8 mps 692 mmHg 77%
    20:00 -4°C° 0 mm 7 mps 693 mmHg 78%
    21:00 -4°C° 0 mm 6 mps 693 mmHg 80%
    22:00 -5°C° 0 mm 5 mps 694 mmHg 81%
    23:00 -4°C° 0 mm 4 mps 694 mmHg 83%

    29 October, Sunday

    Time Temperature Precipitation Wind Pressure Humidity
    00:00 -5°C° 0 mm 3 mps 694 mmHg 85%
    01:00 -4°C° 0 mm 2 mps 694 mmHg 87%
    02:00 -4°C° 0 mm 2 mps 694 mmHg 88%
    03:00 -3°C° 0 mm 1 mps 694 mmHg 88%
    04:00 -3°C° 0 mm 1 mps 695 mmHg 89%
    05:00 -3°C° 0 mm 1 mps 695 mmHg 87%
    06:00 -2°C° 0 mm 1 mps 695 mmHg 85%
    07:00 -2°C° 0 mm 1 mps 695 mmHg 83%
    08:00 -1°C° 0 mm 1 mps 695 mmHg 77%
    09:00 0°C° 0 mm 1 mps 695 mmHg 71%
    10:00 -2°C° 0 mm 2 mps 695 mmHg 64%
    11:00 -1°C° 0 mm 2 mps 694 mmHg 63%
    12:00 -1°C° 0 mm 2 mps 694 mmHg 62%
    13:00 +1°C° 0 mm 2 mps 694 mmHg 61%
    14:00 +1°C° 0 mm 2 mps 693 mmHg 64%
    15:00 -1°C° 0 mm 2 mps 693 mmHg 67%
    16:00 -1°C° 0 mm 3 mps 693 mmHg 70%
    17:00 -1°C° 0 mm 3 mps 692 mmHg 74%
    18:00 -2°C° 0 mm 3 mps 692 mmHg 78%
    19:00 -3°C° 0 mm 4 mps 691 mmHg 82%
    20:00 -3°C° 0.4 mm 4 mps 690 mmHg 84%
    21:00 -3°C° 0.4 mm 4 mps 689 mmHg 87%
    22:00 -3°C° 0.4 mm 4 mps 688 mmHg 90%
    23:00 -3°C° 0.6 mm 4 mps 687 mmHg 90%
    Show more